GFSNGP_sfc_30mbdewp_150.txt.gz
Dewpoint
32 33 29 20 16 17 18 21 18 19 18 21 27 26 25 22 28 32 30 29 28 27 25 24 23 23 23 23 22 21 20 20 21 21 23 23 22 21 20 19 18 19 20 22
25 26 25 23 24 24 24 25 23 24 23 25 24 26 23 24 30 32 32 31 30 28 25 26 23 23 22 23 21 20 19 20 20 21 22 22 19 18 19 18 17 17 18 20
25 26 25 21 22 22 23 25 24 22 23 25 23 23 22 24 31 32 33 32 31 29 26 25 24 23 22 21 21 20 19 19 20 20 21 21 21 17 16 16 16 16 17 18
22 24 20 24 24 23 23 23 24 23 23 22 22 29 29 27 29 32 33 32 31 29 27 26 26 25 23 21 20 19 20 20 19 20 21 21 20 18 16 16 15 16 16 17
25 24 23 21 24 24 23 21 25 24 24 26 30 29 29 31 29 29 32 31 30 28 26 24 24 24 23 20 19 18 19 20 20 20 20 20 21 21 18 16 15 16 17 17
26 22 18 20 21 23 27 20 23 26 25 28 28 21 24 32 32 31 31 30 27 25 22 21 23 23 23 22 22 21 20 20 21 22 21 20 20 21 21 18 17 18 17 17
26 24 24 26 25 25 18 16 22 24 24 28 24 25 30 32 30 28 27 26 23 21 20 20 22 21 19 19 19 21 22 22 22 23 22 22 22 23 23 21 21 18 16 16
27 24 20 27 25 20 20 26 24 26 28 28 33 32 31 29 28 27 25 23 20 18 17 18 20 19 18 16 18 20 21 21 21 22 23 23 22 23 24 22 21 18 15 14
27 24 28 28 25 30 28 24 26 29 31 33 32 32 30 28 26 25 23 20 19 18 18 18 19 18 17 18 19 19 19 20 21 22 23 22 21 20 21 22 21 19 14 12
24 23 25 27 32 32 30 27 28 32 32 33 30 32 32 28 26 24 23 20 19 18 17 17 18 19 18 19 19 19 19 20 21 21 19 18 18 18 18 17 16 16 11 9
23 24 26 28 32 33 31 32 32 35 32 31 30 31 32 29 27 25 24 23 20 19 19 19 19 17 19 19 19 19 20 21 22 20 16 15 15 15 16 15 14 11 9 9
22 25 25 25 31 33 32 32 33 33 35 34 32 31 32 30 29 27 25 24 22 21 21 20 19 18 19 19 19 19 20 21 22 19 17 15 15 15 16 17 15 13 12 11
25 29 29 30 33 33 32 32 31 32 34 34 34 33 32 31 29 27 26 25 23 22 21 21 20 18 19 19 19 19 19 21 21 19 17 15 15 15 14 15 13 12 12 12
31 30 28 32 31 34 32 31 31 32 33 36 36 34 33 32 30 27 25 24 23 22 21 21 21 20 19 19 19 19 20 21 21 18 17 15 16 15 14 14 13 12 11 11
25 29 30 30 32 33 32 31 31 31 31 33 35 34 33 31 30 27 25 23 22 21 21 21 21 21 21 19 18 20 20 20 20 21 20 17 17 15 15 13 13 12 10 5
29 29 29 29 31 33 31 31 30 30 30 30 31 32 32 31 30 27 24 22 20 19 20 20 20 21 21 20 18 19 19 19 19 18 19 19 20 18 17 16 14 12 9 1
29 28 28 28 31 32 31 30 30 30 31 29 28 29 30 29 28 25 23 21 20 20 20 20 19 20 20 19 19 19 20 19 18 17 17 16 16 16 15 16 14 11 2 5
29 29 30 29 30 31 31 30 30 30 30 29 27 26 26 26 25 22 20 19 18 18 19 19 19 19 19 20 19 21 20 19 18 18 18 17 16 15 14 14 12 8 4 6
33 33 34 34 33 31 30 29 28 27 25 24 24 24 23 21 19 18 19 19 18 17 19 19 20 19 19 20 20 20 20 19 18 18 18 15 14 13 11 12 12 9 7 7
31 31 31 30 29 28 26 24 24 23 21 22 21 20 19 18 19 20 20 19 19 19 20 20 19 19 20 21 20 20 19 18 18 16 14 13 11 10 9 9 10 9 9 9
28 28 28 27 26 24 23 23 23 23 22 21 21 20 19 18 19 20 19 19 21 21 21 21 21 22 23 22 20 19 17 16 16 15 12 11 11 10 10 10 9 9 9 8
28 27 26 26 26 27 26 26 26 25 26 25 24 24 22 20 20 19 19 19 21 21 21 22 22 22 22 20 19 18 16 16 15 14 12 12 12 10 8 8 9 8 8 7
27 26 26 26 26 26 26 26 25 25 25 25 24 23 22 21 21 20 20 22 21 20 21 20 19 19 18 17 18 18 17 16 15 14 14 14 13 13 12 11 9 8 6 5
26 26 26 26 26 25 24 25 24 24 24 24 22 22 21 21 21 21 20 22 21 20 19 18 18 17 16 16 17 17 17 17 17 17 16 15 13 12 11 9 8 6 5 4
28 28 26 25 24 24 25 25 25 25 24 23 22 21 21 20 19 20 20 20 19 19 18 17 17 16 15 17 18 18 17 17 16 15 12 11 10 9 7 6 5 4 3 1
28 28 27 26 26 25 25 25 23 24 23 22 22 23 20 22 20 19 19 19 19 18 17 16 16 17 17 18 18 17 16 14 13 11 10 9 8 7 6 3 3 3 0 -2
27 28 28 28 28 26 26 25 23 23 22 21 21 24 23 21 19 18 18 18 18 18 18 18 18 18 18 17 16 14 13 12 11 9 9 8 6 6 5 2 0 -1 -2 -3

GFSNGP_sfc_30mbdewp_153.txt.gz
Dewpoint
32 32 32 30 32 29 29 32 25 26 22 22 24 25 24 26 29 30 31 30 28 26 24 24 23 21 21 22 21 20 20 20 21 21 22 22 20 19 19 19 19 20 21 23
29 29 31 32 32 31 27 24 24 21 22 23 26 29 26 25 26 28 30 30 29 27 25 23 23 22 21 22 21 20 19 19 20 21 18 18 18 18 18 18 18 17 19 20
24 28 29 27 28 29 26 26 22 18 21 25 24 26 25 25 27 28 29 31 29 28 26 24 22 22 21 21 22 20 19 18 20 20 17 18 17 16 15 15 16 17 17 17
26 26 20 24 27 27 24 24 26 24 24 25 24 27 28 28 27 31 33 32 31 29 26 26 23 22 21 21 20 19 19 19 19 20 19 18 15 14 15 15 15 16 17 17
25 23 23 22 25 24 22 20 24 23 24 24 28 28 27 31 31 32 32 33 32 30 27 26 23 22 20 19 19 19 19 20 20 20 20 19 17 15 15 15 16 16 16 17
27 22 19 21 22 26 26 17 24 23 25 28 27 23 23 30 31 30 32 32 31 29 27 26 25 23 20 18 17 17 19 20 21 22 22 21 20 17 16 16 16 16 15 15
26 23 24 25 24 28 18 14 23 27 27 29 24 24 26 31 30 30 28 29 28 26 26 25 25 23 20 18 17 18 20 21 21 22 22 21 22 23 18 18 17 15 14 15
26 24 20 27 26 21 21 24 23 26 28 29 29 29 30 30 29 28 27 26 25 24 23 23 23 23 21 20 20 21 21 21 21 22 23 23 22 24 22 21 19 16 14 13
26 24 27 28 25 26 26 23 26 28 30 31 29 29 29 29 29 27 25 23 21 22 19 20 22 20 19 19 20 21 21 20 20 21 22 22 22 23 23 21 19 17 12 11
27 26 26 27 31 32 30 26 29 31 31 30 29 30 29 29 27 26 23 21 19 18 18 18 19 19 18 18 20 20 20 19 20 20 20 20 20 21 21 20 18 14 11 10
25 25 27 26 28 32 30 29 31 31 31 30 30 31 30 28 27 25 23 20 19 18 18 18 18 18 19 19 19 19 19 20 22 21 19 17 18 18 18 16 16 10 9 10
23 24 24 25 29 33 30 30 32 31 32 32 31 30 31 29 28 25 23 21 19 19 18 18 18 18 19 20 20 20 20 22 22 18 17 16 17 18 18 16 14 11 12 11
24 27 28 27 30 34 33 32 33 33 33 32 32 31 31 30 29 26 24 22 21 20 20 19 18 18 19 20 19 19 19 21 20 18 15 15 16 16 16 16 15 12 12 13
29 28 27 31 27 33 33 32 33 33 34 34 34 33 32 31 29 27 26 24 23 22 21 20 19 18 19 19 19 19 20 20 20 19 16 15 15 15 15 14 13 13 13 14
29 30 28 28 32 32 33 31 31 31 32 34 35 33 32 31 29 28 26 25 24 23 22 21 20 19 19 19 18 19 20 21 20 19 16 15 15 15 15 14 13 11 10 9
24 25 28 28 29 32 32 31 30 31 31 33 34 33 33 32 30 27 26 24 23 22 22 21 21 20 20 19 18 20 20 21 21 19 17 15 16 14 15 13 13 11 9 4
27 26 27 28 28 32 33 31 31 31 31 30 32 33 32 31 29 26 24 23 23 22 21 21 20 21 20 19 18 19 20 20 20 20 20 18 17 16 15 14 13 12 9 4
29 29 30 28 28 30 33 33 32 32 31 29 29 30 30 29 29 26 24 21 20 20 20 20 20 20 20 20 19 20 19 19 19 19 19 19 19 18 17 16 14 11 5 7
31 31 33 34 33 32 32 31 32 30 28 27 26 27 26 25 25 22 20 20 19 19 19 19 20 19 19 20 20 20 19 19 19 18 18 17 17 16 15 14 13 8 6 8
31 32 32 31 31 31 29 27 26 24 22 23 21 21 21 18 19 19 18 18 19 19 18 19 20 19 19 20 21 20 19 19 18 18 17 16 16 14 13 13 12 9 8 9
28 27 26 26 25 24 23 22 22 22 20 20 22 20 18 17 18 18 18 18 19 20 20 20 19 20 20 20 20 19 18 18 17 16 15 14 12 11 11 11 11 9 9 9
26 26 25 24 24 24 23 22 22 21 21 20 18 17 18 18 18 18 19 19 20 20 20 20 20 21 20 20 20 19 18 17 16 14 13 12 11 10 10 10 10 10 10 9
27 27 26 26 26 25 26 25 25 24 24 23 22 21 19 19 19 18 18 21 20 20 20 20 21 21 21 20 19 17 16 15 15 14 13 12 11 10 10 10 11 11 9 8
26 26 26 26 25 25 24 24 25 24 24 23 23 22 21 20 20 20 21 21 20 20 19 19 20 19 19 18 17 16 15 15 14 14 14 14 14 14 13 12 11 9 8 6
25 25 25 25 24 24 24 25 24 24 24 22 22 21 21 20 19 19 20 20 19 18 18 17 17 16 16 16 17 16 15 15 16 15 15 15 13 12 11 10 8 7 6 5
27 26 25 25 25 25 25 24 23 23 23 22 21 19 19 19 19 19 18 18 18 17 17 15 15 14 15 15 15 15 15 15 15 15 13 11 11 10 8 7 6 5 4 3
28 28 27 27 26 25 25 24 23 23 22 21 20 21 20 18 18 18 17 17 17 16 15 15 15 15 15 16 16 16 15 14 13 12 10 10 9 8 6 4 3 2 -0 -2

GFSNGP_sfc_30mbdewp_156.txt.gz
Dewpoint
33 32 32 31 30 29 31 33 29 29 30 30 31 31 26 28 30 30 30 30 29 28 27 25 24 23 22 22 22 21 20 20 19 20 21 20 19 19 19 20 20 21 21 21
30 32 32 30 30 32 31 29 31 34 30 29 27 28 26 26 29 30 30 30 29 28 26 25 24 22 21 22 20 20 19 20 20 20 17 17 18 18 18 18 17 17 18 18
26 29 30 27 29 28 29 29 27 24 25 23 24 27 26 25 27 28 29 31 30 29 26 25 23 22 21 21 21 19 18 19 20 15 14 15 17 16 16 16 16 16 17 17
27 29 20 23 29 29 28 28 28 27 26 25 24 26 29 29 27 27 30 31 30 29 26 25 23 21 21 21 20 19 19 19 18 14 14 13 14 14 14 15 15 16 17 17
24 24 24 23 25 25 25 22 27 27 26 25 27 27 26 29 29 29 32 32 31 29 27 23 23 22 20 20 19 19 19 20 20 17 15 13 13 14 15 15 15 15 16 18
26 22 19 19 22 27 25 20 23 25 24 25 27 22 23 27 30 32 33 32 30 28 26 24 22 21 19 18 18 17 19 20 21 20 19 16 14 15 16 15 15 15 15 16
24 22 24 25 24 26 19 15 22 24 26 28 25 25 28 31 29 31 30 30 29 27 26 24 22 20 17 17 15 17 20 21 21 22 22 21 19 18 18 16 16 15 14 15
26 24 19 27 26 21 22 23 23 26 28 28 27 27 30 29 28 28 28 29 27 26 25 24 22 20 17 16 16 18 19 20 21 22 23 23 22 20 18 18 17 15 13 14
27 24 27 27 25 27 25 23 23 25 29 29 27 29 29 28 28 27 27 26 25 25 23 23 23 21 19 17 17 18 19 19 20 21 22 22 22 23 20 20 17 14 12 11
30 29 28 29 29 32 31 28 26 28 29 30 27 29 28 28 28 27 25 24 23 22 22 22 22 21 20 19 20 19 18 18 19 19 20 20 21 23 21 20 17 16 11 10
31 29 26 27 28 30 30 29 30 32 31 29 27 28 27 28 28 26 24 22 21 22 21 21 20 19 19 20 21 20 19 19 20 20 20 19 19 20 21 18 18 14 9 10
26 27 25 24 27 32 29 29 30 30 30 31 29 27 29 28 28 26 23 21 20 20 20 19 19 19 19 20 20 20 19 20 21 20 19 18 18 18 21 20 19 13 12 12
25 27 28 27 28 33 29 30 31 29 30 30 31 31 30 29 28 26 23 21 20 19 18 18 18 18 19 19 19 19 19 20 20 19 18 17 17 17 16 16 13 13 14 14
29 29 27 30 25 31 33 32 34 33 33 32 32 32 31 30 28 26 24 22 20 20 19 18 18 18 19 20 20 20 20 21 20 18 17 16 16 16 15 14 12 12 15 17
28 30 29 28 30 30 33 33 32 32 33 34 33 32 31 30 29 28 26 24 22 21 20 19 18 18 20 20 20 20 20 20 20 18 16 15 15 15 14 13 12 12 12 12
24 27 28 26 25 26 31 32 31 31 32 33 33 32 32 31 29 28 26 24 23 22 21 20 19 19 19 19 19 19 20 21 19 17 15 15 15 14 14 13 13 11 10 11
24 23 25 26 26 25 27 31 32 32 32 32 33 32 31 30 28 27 26 25 24 23 22 21 20 19 19 19 18 19 20 20 19 18 16 15 15 14 15 14 13 12 10 6
30 26 26 26 26 28 29 33 33 33 32 32 31 31 30 29 29 27 25 23 21 21 21 20 20 19 19 18 18 20 20 20 20 19 18 17 16 15 15 14 14 13 10 5
30 28 28 30 30 30 30 31 33 33 32 29 29 30 29 28 27 24 22 21 21 21 20 19 20 20 19 19 19 20 19 19 20 20 20 19 18 18 17 16 14 13 10 9
31 32 32 31 30 31 30 29 29 28 26 27 25 25 25 22 22 21 20 20 19 20 19 20 20 20 20 20 20 20 19 19 19 18 18 18 17 16 16 15 13 10 9 9
26 25 25 25 24 24 25 24 25 24 23 23 23 22 20 16 17 18 19 20 19 19 20 20 20 20 20 20 20 19 18 18 18 17 16 16 16 15 14 13 12 10 8 8
25 24 24 23 23 23 24 24 22 20 19 18 17 17 17 17 18 18 19 19 19 19 20 20 20 20 20 20 19 18 17 17 16 16 16 15 14 13 12 12 11 10 9 9
26 26 26 26 25 25 25 24 22 21 19 18 18 17 18 18 18 18 18 20 20 20 20 20 20 19 19 19 18 17 17 17 16 15 14 13 11 10 10 9 9 10 9 9
26 25 25 25 25 25 24 25 25 24 24 23 22 20 19 19 19 20 21 20 19 19 19 20 19 19 18 18 18 17 16 15 14 13 12 12 11 10 10 10 10 11 10 9
25 25 25 25 24 24 24 24 24 23 22 22 21 21 21 20 19 19 20 20 19 18 18 18 19 18 17 17 16 15 14 13 13 13 13 13 13 13 12 12 11 10 8 7
25 25 25 25 25 25 25 24 23 23 22 21 20 18 18 19 19 18 18 19 18 17 17 16 16 15 15 15 15 13 13 13 13 14 14 14 13 12 11 10 9 8 7 5
28 27 26 26 26 25 25 24 23 22 21 19 19 18 18 18 17 17 16 16 16 15 15 14 13 13 14 14 14 13 14 14 14 14 13 11 11 10 9 8 6 5 4 3

GFSNGP_sfc_30mbdewp_162.txt.gz
Dewpoint
33 31 32 32 31 31 31 33 29 34 33 33 36 34 32 33 30 30 31 32 33 34 34 33 33 32 31 31 30 30 29 29 28 26 24 22 23 21 21 22 21 18 19 20
29 27 25 27 30 28 32 33 34 33 31 33 34 34 32 31 31 30 30 31 32 33 33 32 32 31 30 29 28 28 27 26 26 24 22 22 21 21 22 21 23 23 21 23
22 25 23 24 27 30 28 29 29 25 25 27 31 31 32 32 32 30 30 31 32 32 32 31 31 30 29 28 27 24 25 24 24 23 21 22 22 22 23 23 22 22 23 23
20 19 17 26 27 29 28 27 26 25 25 26 28 30 31 33 32 32 31 31 31 32 32 31 30 29 28 26 24 23 21 22 23 21 20 21 22 22 22 22 22 22 22 23
17 16 18 16 21 24 26 21 23 26 26 26 28 29 28 31 33 33 33 33 34 33 32 31 29 28 26 25 23 21 18 19 21 19 19 20 20 21 23 23 23 22 23 22
16 16 13 13 18 26 27 22 21 21 22 23 26 26 30 33 34 34 39 38 36 34 32 31 30 28 27 24 22 20 19 18 17 14 14 18 20 21 23 23 22 23 23 22
20 16 13 13 13 21 17 17 21 26 26 29 28 28 34 36 35 36 37 36 37 35 33 32 31 28 27 26 24 24 21 19 15 11 13 17 20 20 21 21 21 21 22 22
22 18 16 15 17 21 18 21 25 24 26 32 35 34 34 37 36 34 34 33 32 31 30 30 29 28 27 25 26 25 24 22 20 19 19 19 20 20 19 19 19 19 18 18
20 18 24 30 27 28 31 29 27 26 27 32 36 32 34 33 33 33 33 32 31 29 28 28 28 27 26 26 25 24 24 24 23 23 23 24 22 22 21 20 19 18 15 17
23 22 21 21 23 26 27 28 29 28 27 32 33 35 34 32 32 32 31 30 29 28 27 27 27 27 27 24 24 24 24 24 24 24 25 24 23 23 22 22 21 20 18 18
27 27 27 27 28 31 32 31 32 31 30 30 31 33 33 31 31 30 30 29 29 28 27 27 26 26 24 23 23 21 22 23 22 23 23 23 23 22 22 23 22 21 21 19
21 23 25 26 33 34 33 31 31 30 31 31 31 32 31 30 29 29 28 29 29 29 28 26 26 25 23 21 20 19 18 19 21 21 22 22 22 24 24 25 23 22 20 20
24 26 29 31 31 31 35 36 32 32 32 31 31 31 30 29 28 27 27 28 28 28 28 26 26 24 22 20 19 17 16 17 19 20 20 20 20 21 21 23 24 22 17 16
30 30 28 29 28 30 32 33 34 32 32 31 31 31 30 29 28 27 27 27 27 27 27 27 25 24 23 21 19 18 17 18 20 20 20 20 20 20 20 20 19 19 15 15
24 27 28 29 29 28 31 32 32 32 32 34 33 33 32 30 29 29 28 27 26 26 26 26 25 24 23 22 21 20 20 20 23 23 23 22 22 21 20 19 19 18 17 16
21 27 25 22 22 27 26 27 26 29 34 36 36 35 33 33 31 30 28 26 25 25 25 25 25 25 23 22 21 23 25 25 25 24 24 22 21 20 20 20 19 18 16 16
31 28 29 28 24 21 22 25 25 23 27 34 37 37 36 34 32 30 28 26 28 27 26 25 26 25 25 25 25 24 25 24 24 23 22 22 21 20 19 19 17 15 15 16
32 32 32 32 30 24 26 29 31 31 33 36 38 35 33 32 32 30 28 28 27 27 27 27 25 24 25 26 25 24 24 23 22 22 21 20 19 19 18 17 14 14 16 19
31 32 32 33 32 30 31 34 34 35 35 35 34 33 33 33 32 30 29 27 27 26 27 25 23 23 24 24 23 23 24 22 21 21 19 19 19 17 18 17 15 17 17 16
30 31 31 30 30 32 32 31 33 32 33 34 33 32 32 31 30 28 28 29 31 31 26 25 23 23 23 22 23 23 23 23 20 19 19 18 19 19 19 17 17 19 19 17
28 27 26 27 27 28 28 29 29 29 29 32 32 31 29 28 28 28 28 27 26 25 25 24 23 22 22 21 21 23 23 22 20 20 19 19 19 20 20 19 19 20 20 19
28 27 27 29 28 27 27 28 28 27 27 25 25 26 26 25 26 26 26 29 25 25 24 23 22 21 21 21 20 24 23 22 21 20 20 20 21 21 21 21 20 21 20 20
28 28 28 28 27 27 26 25 25 26 25 25 25 27 27 26 26 26 24 24 24 24 24 24 23 23 22 24 25 24 23 22 21 20 20 21 21 22 22 21 20 19 19 18
29 28 27 28 28 27 26 26 25 23 23 23 23 24 24 25 24 23 23 23 23 25 27 26 24 23 24 25 25 24 23 23 22 22 21 22 23 22 21 20 19 19 19 18
28 27 27 27 26 25 25 25 24 24 23 22 22 23 23 24 25 24 24 23 23 24 24 23 23 23 25 25 24 24 23 23 22 22 21 21 20 20 19 19 18 17 16 15
26 26 25 25 25 24 24 24 23 23 23 23 24 24 25 23 23 23 23 22 23 23 23 22 23 24 24 24 23 23 22 22 22 21 20 20 19 19 18 17 17 17 16 16
26 26 25 25 24 24 24 24 23 23 23 23 22 23 23 23 23 23 22 23 23 23 23 23 23 23 23 23 22 22 22 21 20 20 20 19 19 19 18 18 17 17 16 15

GFSNGP_sfc_30mbdewp_165.txt.gz
Dewpoint
28 29 28 32 33 32 32 32 28 30 32 33 38 39 36 34 34 31 31 32 34 36 37 37 37 37 35 34 34 33 32 33 32 31 29 26 26 24 24 24 23 21 22 22
25 22 27 26 27 25 24 22 26 30 28 28 32 38 37 32 32 32 31 32 33 36 37 36 36 35 34 32 32 31 32 31 31 29 27 25 23 23 24 24 24 27 23 25
19 18 27 25 26 20 20 23 21 21 23 32 32 30 30 29 31 32 32 31 33 35 35 35 35 34 33 32 30 29 30 29 28 27 26 27 23 25 27 26 25 25 26 25
20 19 15 20 26 24 25 23 23 23 23 23 26 24 27 29 30 32 32 32 32 34 34 35 34 33 32 31 29 27 26 26 27 26 26 27 28 26 27 26 24 24 24 25
20 18 17 15 15 17 26 26 24 21 22 22 24 25 24 28 29 33 33 34 34 34 34 34 34 33 32 30 28 26 24 23 24 24 25 26 24 25 27 26 25 26 24 25
22 19 15 12 16 23 22 20 21 21 20 21 21 20 25 29 30 33 39 37 36 35 34 34 34 33 32 29 27 25 24 22 22 20 20 22 23 26 27 26 26 24 23 24
22 18 16 14 13 14 15 16 19 20 23 23 24 25 35 38 36 37 41 40 40 38 36 37 34 32 32 30 29 28 25 22 20 17 17 20 22 23 23 24 23 23 23 23
22 20 18 16 15 11 15 18 20 21 24 26 34 37 37 39 39 37 38 37 38 37 36 35 35 33 31 30 31 30 28 25 22 20 18 19 21 22 22 22 22 21 20 21
21 19 19 24 22 26 30 26 27 27 27 26 38 38 37 34 35 35 35 35 35 33 33 34 34 32 30 31 28 28 26 23 22 24 23 25 26 25 22 22 21 21 20 20
25 22 22 21 24 25 23 23 24 24 25 27 28 36 36 34 33 33 33 32 32 31 30 30 31 31 30 28 27 26 25 24 25 25 26 26 25 24 23 23 23 22 20 20
29 25 24 25 24 26 30 31 31 29 27 30 29 30 35 33 33 32 31 31 30 29 29 29 29 30 28 28 27 25 25 25 22 23 23 24 24 23 23 25 24 22 22 22
28 24 23 23 30 31 29 29 32 32 30 30 30 30 33 32 31 31 30 30 29 29 29 28 28 27 26 26 24 24 23 22 22 22 22 22 22 23 26 24 25 24 23 23
28 26 27 29 28 27 28 32 34 35 32 31 30 30 32 30 30 30 30 30 30 29 29 28 27 26 25 24 24 23 21 21 22 22 22 22 21 22 21 26 24 22 20 20
28 25 23 27 27 28 28 30 34 38 35 33 31 31 31 30 29 28 29 29 30 30 29 28 27 26 25 24 23 22 20 21 22 22 23 23 23 23 22 22 21 21 20 18
24 23 23 27 28 27 28 29 32 33 33 32 33 33 33 31 29 29 31 30 29 29 29 28 27 26 25 24 22 21 20 21 25 26 27 26 25 24 25 21 20 21 20 16
21 17 20 20 18 19 25 26 25 27 33 34 34 33 32 32 31 31 29 29 29 29 29 29 28 27 26 24 22 23 26 26 28 28 27 26 25 25 25 21 21 20 18 17
22 25 26 26 25 25 20 19 20 20 22 30 36 37 35 34 33 31 29 29 32 31 32 31 30 29 29 28 27 25 27 26 26 27 25 24 24 23 22 22 21 20 19 21
31 31 31 31 31 31 26 24 27 30 30 35 39 38 36 35 34 33 32 32 31 30 31 31 29 28 29 29 28 28 28 26 25 26 25 24 24 23 22 20 19 19 18 22
31 31 32 32 34 33 31 34 36 35 35 36 36 36 35 35 34 32 31 30 29 28 28 29 27 27 27 27 27 27 27 25 24 24 24 26 26 23 23 21 19 17 20 20
31 32 32 32 31 33 33 31 33 32 33 34 34 33 32 32 31 30 31 31 32 32 28 26 25 26 26 25 25 26 26 25 23 26 27 25 25 24 23 20 18 19 22 20
30 30 29 29 30 30 29 30 31 30 31 33 33 32 30 30 31 31 30 29 28 28 26 25 25 25 24 23 24 28 27 26 26 25 23 23 23 22 22 21 20 21 21 22
30 30 30 30 30 28 29 29 30 29 29 29 29 30 29 29 29 29 31 29 28 27 26 26 25 24 23 23 24 28 26 24 24 24 23 23 23 22 22 22 21 23 23 22
30 30 30 29 29 28 29 28 29 29 29 29 29 30 29 30 31 30 28 29 28 28 26 25 25 24 23 28 28 26 25 25 25 25 24 24 22 23 23 23 23 23 23 23
29 29 29 29 30 29 27 27 26 27 27 27 28 30 30 28 28 28 27 27 26 28 29 26 25 24 27 28 28 27 26 25 24 25 23 23 24 25 26 24 23 22 23 21
29 28 28 28 27 26 26 26 26 25 25 25 25 26 26 28 27 26 26 26 27 26 26 26 26 26 28 28 27 27 25 25 25 25 24 24 25 24 24 23 22 22 22 20
27 26 26 26 25 25 24 24 24 24 24 24 25 26 26 25 25 25 25 25 25 24 24 25 26 28 28 28 27 27 26 25 24 24 24 24 23 23 22 21 21 20 19 19
27 26 25 24 24 24 24 24 24 24 25 25 25 25 24 25 24 24 24 25 25 25 25 25 26 27 26 26 26 25 24 23 24 22 23 22 21 21 20 20 20 20 20 19

GFSNGP_sfc_30mbdewp_168.txt.gz
Dewpoint
27 25 22 21 23 31 34 34 31 27 29 27 26 35 39 38 35 35 32 32 35 38 40 40 40 39 37 35 33 33 33 33 33 33 31 30 30 29 28 27 26 26 27 25
22 19 19 20 23 24 26 35 34 32 29 28 29 30 36 38 35 32 33 32 34 38 39 39 38 37 36 34 34 33 34 33 33 31 30 29 28 27 27 27 30 28 27 26
17 17 18 18 19 22 30 24 26 27 27 24 26 30 32 32 34 32 33 32 33 37 38 38 37 36 35 33 32 32 32 31 31 29 29 28 27 29 29 28 28 28 27 26
19 18 14 15 16 27 30 31 31 20 19 21 23 28 27 27 29 30 31 34 34 36 38 38 37 36 35 32 31 31 31 29 28 27 27 30 28 27 28 27 26 27 25 25
18 14 17 16 14 15 17 28 28 23 24 26 30 29 27 28 28 30 33 36 35 36 37 38 37 36 34 31 30 29 28 27 26 26 27 28 27 27 28 27 27 26 26 25
22 15 11 12 13 17 21 23 25 24 23 23 25 27 32 38 38 33 42 37 36 36 37 37 36 35 34 31 30 28 27 26 25 25 26 26 26 27 27 27 27 25 24 25
23 19 17 15 16 16 22 21 23 23 21 23 24 30 41 40 40 41 40 40 38 37 36 37 36 35 34 32 30 29 27 25 23 23 25 25 26 26 26 26 24 24 23 23
26 23 19 21 25 19 23 28 26 24 25 31 32 33 35 38 39 38 38 39 39 37 37 38 37 35 33 31 32 29 28 26 25 23 23 24 25 25 25 25 24 23 22 22
27 27 29 31 25 31 36 30 32 34 35 36 37 37 38 36 36 37 37 38 37 36 35 35 35 34 32 33 31 30 28 26 23 24 22 25 26 25 24 25 24 24 23 23
22 24 25 29 31 35 34 29 29 29 30 30 27 38 38 35 34 35 35 36 35 35 34 33 34 33 32 32 31 29 26 24 25 23 25 26 27 26 25 26 25 24 23 24
20 24 29 28 28 32 30 29 28 32 33 31 29 29 37 35 34 34 33 33 34 33 33 32 32 31 30 29 27 25 24 24 24 25 26 26 26 26 27 27 26 25 25 25
21 27 32 35 36 35 31 25 29 36 36 34 34 30 31 35 33 32 32 31 31 31 31 31 30 29 28 27 26 25 24 23 24 25 25 25 25 25 27 27 26 25 25 27
24 28 28 32 36 27 25 27 31 34 37 36 34 31 31 33 32 31 31 31 30 30 30 30 29 28 27 26 26 25 23 23 24 24 24 23 25 24 24 26 25 23 26 25
22 27 33 34 27 29 29 28 34 38 39 39 39 34 33 32 32 31 31 31 31 30 29 29 28 27 27 26 26 25 24 24 24 24 24 23 24 23 24 23 22 22 21 24
23 23 30 20 24 26 27 27 29 35 37 37 38 38 34 30 30 31 32 32 31 30 29 29 27 27 27 27 26 25 24 25 25 27 26 25 25 24 24 23 23 23 21 21
32 29 16 17 21 21 18 19 24 26 35 35 35 35 35 35 37 38 36 35 33 31 30 29 28 27 27 26 25 25 25 26 26 29 28 27 27 26 25 23 22 22 20 19
23 20 28 29 28 28 26 26 22 27 34 36 36 35 35 35 35 33 33 33 33 32 32 30 29 28 28 27 26 27 27 28 28 29 27 27 27 27 26 23 23 22 20 20
30 30 31 31 32 32 33 32 38 38 37 37 38 37 36 34 34 32 32 33 32 32 33 31 30 29 29 28 28 29 28 28 28 27 26 26 26 26 26 24 23 22 21 22
31 32 33 34 34 37 35 33 33 32 33 33 35 36 35 34 33 32 32 31 31 30 29 29 29 29 28 29 29 29 28 27 27 27 26 26 26 26 26 24 23 23 25 22
32 33 32 31 31 31 30 30 32 31 33 34 34 34 32 32 31 31 30 30 31 30 29 28 28 28 28 28 29 28 27 26 27 27 26 27 27 27 26 24 24 25 25 22
30 30 30 29 30 30 30 30 30 30 31 33 32 31 30 31 31 31 30 28 28 29 27 27 27 27 26 26 28 28 28 27 27 28 28 27 28 28 27 25 23 23 25 22
31 30 30 30 29 29 30 30 30 30 30 30 30 30 30 30 30 30 31 28 28 26 27 27 27 26 26 25 29 28 28 27 28 27 26 27 26 26 25 23 23 24 25 24
30 30 29 29 29 28 29 29 29 29 29 29 30 30 30 30 31 28 26 28 29 30 30 31 30 28 25 30 29 27 27 27 27 26 25 25 25 25 24 24 23 24 24 24
29 29 28 29 30 28 27 28 28 28 29 29 30 31 31 29 28 30 30 30 30 30 29 28 26 26 30 29 28 27 27 27 27 27 26 26 25 24 24 25 25 26 26 26
28 27 28 28 26 27 27 28 28 28 28 28 27 28 29 29 27 28 29 28 28 27 26 25 26 30 29 28 28 27 27 27 27 26 25 24 25 25 27 25 25 24 24 23
27 26 26 26 26 25 25 26 26 26 26 26 26 26 26 26 27 27 27 27 27 27 26 27 29 29 29 28 28 27 27 27 26 26 25 26 26 26 24 24 24 23 22 22
28 26 26 25 25 26 26 26 26 26 27 26 25 26 26 26 26 26 26 26 26 26 27 28 28 29 28 28 28 27 26 26 26 25 26 25 24 24 23 23 23 23 23 22